Regional Weather Roundup
Issued by NWS Albany, NY

Home | Current Version | Previous Version | Text Only | Print | Product List | Glossary On
Versions: 1 2 3 4 5 6 7 8 9 10 11 12 13 14 15 16 17 18 19 20 21 22 23 24 25 26 27 28 29 30 31 32 33 34 35 36 37 38 39 40 41 42 43 44 45 46 47 48 49 50
000
ASUS41 KALY 300910
RWRALY

NEW YORK STATE HOURLY WEATHER ROUNDUP
NATIONAL WEATHER SERVICE ALBANY NY
500 AM EDT SAT JUL 30 2016

NOTE: "FAIR" INDICATES FEW OR NO CLOUDS BELOW 12,000 FEET WITH NO
SIGNIFICANT WEATHER AND/OR NO OBSTRUCTIONS TO VISIBILITY.

NYZ032-033-038>043-046>054-057>066-NYZ062>081-082-084-301000-
EAST


CITY           SKY/WX    TMP DP  RH WIND       PRES   REMARKS
ALBANY         PTCLDY    65  59  81 N6        30.00S
GLENS FALLS    CLEAR     61  57  87 CALM      30.01R
POUGHKEEPSIE   CLEAR     68  62  81 CALM      29.96S
NEWBURGH       CLEAR     68  61  77 CALM      29.99S
MONTGOMERY     CLEAR     65  65 100 CALM      29.98R
WHITE PLAINS   CLEAR     70  67  90 NW3       29.96R FOG
ISLIP          CLEAR     72  71  97 CALM      29.95R
NEW YORK CITY  PTCLDY    77  70  79 NW3       29.93S
CENTRAL PARK   CLEAR     75  67  76 NW3       29.97S
$$

NYZ005>009-017-018-044>046-055-056-301000-
CENTRAL


CITY           SKY/WX    TMP DP  RH WIND       PRES   REMARKS
FULTON         PTCLDY    65  55  70 NE5       30.01S
SYRACUSE       MOCLDY    61  59  93 CALM      30.00S
ROME           PTCLDY    58  57  97 CALM      30.03R
ELMIRA         HVY RAIN  64  61  90 CALM      30.00S FOG
BINGHAMTON     CLOUDY    63  55  75 NE7       30.02R
MONTICELLO     CLEAR     63  61  94 CALM      30.02S
$$

NYZ026>034-041>043-087-301000-
NORTH


CITY           SKY/WX    TMP DP  RH WIND       PRES   REMARKS
WATERTOWN      CLEAR     57  54  89 NE7       30.03S
FORT DRUM      NOT AVBL
MASSENA        PTCLDY    57  54  89 CALM      30.05S
SARANAC LAKE   MOCLDY    44  42  93 CALM      30.05S FOG
PLATTSBURGH    CLEAR     59  55  87 W5        30.03R
$$

NYZ001>004-010>016-019>021-085-301000-
WEST


CITY           SKY/WX    TMP DP  RH WIND       PRES   REMARKS
NIAGARA FALLS  MOCLDY    69  60  73 E9        29.99
BUFFALO        CLOUDY    68  60  75 E12       29.99F
DUNKIRK        CLOUDY    68  60  75 E6        29.97S
JAMESTOWN      CLOUDY    66  57  72 E8        30.00S
WELLSVILLE     CLOUDY    63  57  81 SE6       30.06R
ROCHESTER      CLOUDY    69  59  70 E8        30.01S
PENN YAN       PTCLDY    64  57  78 CALM      30.02S
$$

             KEY
       WCI = WIND CHILL INDEX
       VSB = VISIBILITY
       HX  = HEAT INDEX
$$



USA.gov is the U.S. government's official web portal to all federal, state and local government web resources and services.